Zurück zum Katalog

STARLINK-37953

AktivKommunikationSSO
NORAD 69694·PAYLOAD·🇺🇸 United States

Gestartet Jun 25, 2026 von Vandenberg Space Force Base

Loading…

Nächste Überflüge (nächste 24 Stunden)

TLE

AktuellSource: CelesTrak SupGP

Epoche: Sep 14, 2026, 23:05 UTC

1 69694C 26145T   26257.96229167  .00091788  00000+0  28498-2 0  2578
2 69694  97.2846 104.7357 0001771  91.6421  11.6997 15.33387173    13

Verfolge STARLINK-37953 in Echtzeit mit AllMySat

Download on the App Store